Location: Góry Miechowskie
(50.3599°N, 20.1803°E)
Time: 16:32:57
(UTC+00:00)

Cosmos 2228 - Pass Details

Date: 18 September 2024
Orbit: 574 x 600 km, 82.5° (Epoch: 12 October)

Event Time Altitude Azimuth Distance (km) Brightness Sun altitude
Exits shadow 02:57:10 14° 291° (WNW) 1,675 4.8 -13.7°
Maximum altitude 02:57:35 14° 298° (WNW) 1,667 4.9 -13.6°
Drops below altitude 10° 02:59:56 10° 331° (NNW) 1,942 5.5 -13.3°
Sets 03:03:08 0° 357° (N) 2,856 6.7 -12.8°
